Main page
Satellite images Climate Cyclones Lightning AirportsFAQ Languages Contact Newsletter About
Weather : Europe Africa North America South America Asia Australia-Oceania Others

chiang-mai-th, Lampang, Lampang Airport

48328

latitude: , longitude: Thailand, elevation: 18-17N m


METAR: VTCL 200300Z 18006KT 140V210 9999 FEW025 30/24 Q1008 NOSIG